Lake Martin Weather Center

Moon Phase Calendar



Lake Martin Water Level
Online Cameras

 


      

Current Conditions in Dadeville
10/19/2021 12:38:14 AM

50°F
Feels Like 50
Clear
Humidity
100%
Pressure
30.18"
Wind
0
Dew Point
50°F
UV Index
0/10 (Low)
Visibility
6 mi

Hourly Forecast

Date & Time Tue, Oct 19
12:00 AM
Tue, Oct 19
1:00 AM
Tue, Oct 19
2:00 AM
Tue, Oct 19
3:00 AM
Tue, Oct 19
4:00 AM
Tue, Oct 19
5:00 AM
Tue, Oct 19
6:00 AM
Tue, Oct 19
7:00 AM
Tue, Oct 19
8:00 AM
Tue, Oct 19
9:00 AM
Tue, Oct 19
10:00 AM
Tue, Oct 19
11:00 AM
Tue, Oct 19
12:00 PM
Tue, Oct 19
1:00 PM
Tue, Oct 19
2:00 PM
Tue, Oct 19
3:00 PM
Tue, Oct 19
4:00 PM
Tue, Oct 19
5:00 PM
Tue, Oct 19
6:00 PM
Tue, Oct 19
7:00 PM
Tue, Oct 19
8:00 PM
Tue, Oct 19
9:00 PM
Tue, Oct 19
10:00 PM
Tue, Oct 19
11:00 PM
Wed, Oct 20
12:00 AM
Wed, Oct 20
1:00 AM
Wed, Oct 20
2:00 AM
Wed, Oct 20
3:00 AM
Wed, Oct 20
4:00 AM
Wed, Oct 20
5:00 AM
Wed, Oct 20
6:00 AM
Wed, Oct 20
7:00 AM
Wed, Oct 20
8:00 AM
Wed, Oct 20
9:00 AM
Wed, Oct 20
10:00 AM
Wed, Oct 20
11:00 AM
Wed, Oct 20
12:00 PM
Wed, Oct 20
1:00 PM
Wed, Oct 20
2:00 PM
Wed, Oct 20
3:00 PM
Wed, Oct 20
4:00 PM
Wed, Oct 20
5:00 PM
Wed, Oct 20
6:00 PM
Wed, Oct 20
7:00 PM
Wed, Oct 20
8:00 PM
Wed, Oct 20
9:00 PM
Wed, Oct 20
10:00 PM
Wed, Oct 20
11:00 PM
Condition
Clouds

Clear

Clouds

Clouds

Clouds

Clouds

Clouds

Clouds

Clear

Clear

Clear

Clear

Clear

Clear

Clouds

Clouds

Clouds

Clouds

Clouds

Clouds

Clouds

Clouds

Clouds

Clouds

Clouds

Clouds

Clear

Clouds

Clouds

Clouds

Clouds

Clouds

Clouds

Clouds

Clouds

Clouds

Clouds

Clouds

Clouds

Clouds

Clouds

Clouds

Clouds

Clouds

Clouds

Clouds

Clouds

Clouds
Temperature 50°F50°F50°F50°F50°F49°F48°F48°F53°F59°F65°F69°F72°F74°F74°F75°F74°F71°F63°F61°F59°F58°F56°F55°F54°F53°F53°F53°F53°F53°F53°F53°F57°F62°F67°F71°F74°F76°F77°F78°F77°F74°F68°F67°F65°F65°F64°F64°F
Feels Like 49°F49°F49°F49°F49°F48°F47°F47°F51°F58°F63°F67°F70°F72°F73°F73°F73°F70°F62°F59°F57°F56°F54°F53°F52°F52°F51°F52°F52°F52°F52°F52°F56°F61°F66°F71°F74°F76°F77°F77°F77°F74°F68°F66°F65°F64°F64°F64°F
Cloudiness 12%1%11%30%41%53%53%44%0%0%0%0%0%1%36%29%28%29%28%40%91%94%81%63%54%46%9%50%61%65%72%75%60%80%87%90%92%93%88%89%93%95%96%96%100%100%100%100%
Visibility 6 mi6 mi6 mi6 mi6 mi6 mi6 mi6 mi6 mi6 mi6 mi6 mi6 mi6 mi6 mi6 mi6 mi6 mi6 mi6 mi6 mi6 mi6 mi6 mi6 mi6 mi6 mi6 mi6 mi6 mi6 mi6 mi6 mi6 mi6 mi6 mi6 mi6 mi6 mi6 mi6 mi6 mi6 mi6 mi6 mi6 mi6 mi6 mi
Precipitation 0%0%0%0%0%0%0%0%0%0%0%0%0%0%0%0%0%0%0%0%0%0%0%0%0%0%0%0%0%0%0%0%0%0%0%0%0%0%0%0%0%0%0%0%0%0%0%0%
Humidity 93%100%93%87%81%76%72%72%67%52%43%37%33%32%31%31%33%48%53%53%56%57%59%63%65%67%69%69%70%72%73%75%72%63%58%54%49%48%46%45%47%60%67%69%72%74%74%75%
Dew Point 48°F50°F48°F46°F44°F42°F39°F39°F41°F42°F42°F41°F41°F41°F42°F42°F43°F50°F46°F44°F43°F42°F42°F42°F42°F43°F43°F43°F43°F44°F44°F45°F47°F49°F52°F53°F54°F54°F55°F55°F55°F59°F57°F56°F56°F56°F56°F56°F
Pressure 30.18"30.18"30.18"30.18"30.21"30.21"30.21"30.24"30.24"30.27"30.27"30.24"30.24"30.21"30.18"30.15"30.15"30.15"30.18"30.18"30.21"30.21"30.21"30.21"30.21"30.21"30.21"30.24"30.24"30.24"30.24"30.24"30.27"30.27"30.27"30.27"30.24"30.21"30.18"30.15"30.15"30.15"30.15"30.15"30.18"30.18"30.18"30.18"
Wind Speed 3.4 mph3.4 mph3.4 mph3.1 mph3.6 mph3.7 mph4.1 mph4.2 mph3.7 mph3.7 mph4.4 mph5.4 mph5.5 mph5.5 mph5.4 mph5.1 mph4.5 mph2.5 mph3.2 mph4.2 mph4.2 mph4.8 mph4.3 mph4.2 mph4.1 mph3.7 mph3.6 mph3.3 mph3.7 mph4.1 mph4.4 mph4.5 mph3.2 mph4.6 mph4.5 mph4.9 mph5.2 mph5.5 mph5.2 mph4.4 mph3.3 mph1.5 mph2.6 mph4.1 mph3.9 mph4 mph3.7 mph3.8 mph
Wind
Direction
86°
E
79°
E
77°
ENE
68°
ENE
66°
ENE
60°
ENE
67°
ENE
79°
E
73°
ENE
103°
ESE
118°
ESE
130°
SE
146°
SE
156°
SSE
159°
SSE
159°
SSE
159°
SSE
131°
SE
88°
E
87°
E
95°
E
114°
ESE
125°
SE
115°
ESE
109°
ESE
108°
ESE
102°
ESE
97°
E
87°
E
92°
E
86°
E
82°
E
100°
E
116°
ESE
128°
SE
145°
SE
159°
SSE
168°
SSE
175°
S
171°
S
171°
S
121°
ESE
101°
E
107°
ESE
119°
ESE
134°
SE
149°
SSE
152°
SSE

Daily Forecast

Date High Low Precip. Humidity
Today
Oct 19

Clear
75 °F
48 °F
0%
33%
Wednesday
Oct 20

Clouds
77 °F
53 °F
0%
49%
Thursday
Oct 21

Rain
79 °F
64 °F
71%
51%
Friday
Oct 22

Rain
81 °F
63 °F
82%
52%
Saturday
Oct 23

Clear
83 °F
61 °F
0%
45%
Sunday
Oct 24

Clear
83 °F
62 °F
0%
47%
Monday
Oct 25

Clear
84 °F
65 °F
0%
49%
Tuesday
Oct 26

Rain
85 °F
69 °F
36%
52%
Wednesday
Oct 27

Rain
65 °F
60 °F
86%
88%
Thursday
Oct 28

Rain
68 °F
54 °F
100%
42%
Friday
Oct 29

Clear
66 °F
46 °F
0%
31%
Saturday
Oct 30

Clear
71 °F
47 °F
0%
31%
Sunday
Oct 31

Rain
71 °F
57 °F
42%
65%
Monday
Nov 1

Rain
63 °F
60 °F
100%
96%
Tuesday
Nov 2

Rain
65 °F
55 °F
100%
98%
Wednesday
Nov 3

Clear
65 °F
47 °F
0%
42%

Temperature 8-14 Day Outlook



Precipitation 8-14 Day Outlook




Quick Links
Lake Martin News
Lake Martin Photos
Lake Martin Videos




About Us
Contact Us
Site Map
Search Site
Advertise With Us
   
www.LakeMartin.com
THE LAKE MARTIN WEBSITE

Copyright 2021, Lakes Online
Privacy    |    Legal